Location: Aghk�ilisa
(40.0189°N, 45.0097°E)
Time: 15:50:06
(UTC+00:00)

Cosmos 1937 Rocket - Pass Details

Date: 21 October 2019
Orbit: 747 x 780 km, 74.0° (Epoch: 18 November)

Event Time Altitude Azimuth Distance (km) Brightness Sun altitude
Rises 16:13:24 0° 347° (NNW) 3,201 7.0 -23.8°
Reaches altitude 10° 16:15:53 10° 353° (N) 2,272 6.1 -24.3°
Enters shadow 16:19:02 33° 19° (NNE) 1,253 4.4 -24.9°
